TimeCAT,TemperatureF,Dew PointF,Humidity,Sea Level PressureIn,VisibilityMPH,Wind Direction,Wind SpeedMPH,Gust SpeedMPH,PrecipitationIn,Events,Conditions,WindDirDegrees,DateUTC
1:00 AM,59.0,37.4,45,30.18,4.3,ENE,9.2,-,N/A,,Unknown,60,2013-08-17 23:00:00
2:00 AM,58,37,33,,4,NE,4.6,,,,Haze,50,2013-08-18 00:00:00
2:00 AM,57.2,37.4,48,30.18,4.3,NE,4.6,-,N/A,,Unknown,50,2013-08-18 00:00:00
5:00 AM,53.6,39.2,58,30.15,4.3,ENE,8.1,-,N/A,,Unknown,60,2013-08-18 03:00:00
6:00 AM,53.6,39.2,58,30.18,4.3,ENE,9.2,-,N/A,,Unknown,60,2013-08-18 04:00:00
7:00 AM,55.4,41.0,58,30.21,4.3,ENE,8.1,-,N/A,,Unknown,60,2013-08-18 05:00:00
8:00 AM,64,42,33,,4,ENE,8.1,,,,Haze,60,2013-08-18 06:00:00
8:00 AM,64.4,42.8,45,30.21,4.3,ENE,8.1,-,N/A,,Unknown,60,2013-08-18 06:00:00
9:00 AM,71.6,37.4,29,30.24,4.3,NE,8.1,-,N/A,,Unknown,50,2013-08-18 07:00:00
10:00 AM,75.2,32.0,21,30.24,5.0,North,5.8,-,N/A,,Clear,360,2013-08-18 08:00:00
11:00 AM,77.0,35.6,22,30.24,5.6,SW,5.8,-,N/A,,Clear,230,2013-08-18 09:00:00
12:00 PM,80.6,33.8,18,30.21,5.6,Variable,4.6,-,N/A,,Clear,0,2013-08-18 10:00:00
1:00 PM,80.6,32.0,17,30.18,5.6,Variable,5.8,-,N/A,,Unknown,0,2013-08-18 11:00:00
2:00 PM,83,33,8,,6,SSW,5.8,,,,Haze,200,2013-08-18 12:00:00
2:00 PM,82.4,32.0,16,30.15,5.6,Variable,5.8,-,N/A,,Mostly Cloudy,0,2013-08-18 12:00:00
3:00 PM,82.4,30.2,15,30.12,5.6,Variable,2.3,-,N/A,,Mostly Cloudy,0,2013-08-18 13:00:00
4:00 PM,82.4,33.8,17,30.12,5.6,South,5.8,-,N/A,,Mostly Cloudy,180,2013-08-18 14:00:00
5:00 PM,78.8,33.8,20,30.12,5.6,South,4.6,-,N/A,,Mostly Cloudy,190,2013-08-18 15:00:00
6:00 PM,71.6,33.8,25,30.15,5.6,Calm,Calm,-,N/A,,Mostly Cloudy,0,2013-08-18 16:00:00
7:00 PM,68.0,33.8,28,30.18,5.6,Variable,1.2,-,N/A,,Unknown,0,2013-08-18 17:00:00
8:00 PM,62,34,23,,6,ESE,3.5,,,,Haze,120,2013-08-18 18:00:00
9:00 PM,60.8,35.6,39,30.21,5.6,Calm,Calm,-,N/A,,Unknown,0,2013-08-18 19:00:00
10:00 PM,62.6,35.6,37,30.21,-9999.0,ENE,6.9,-,N/A,,Clear,60,2013-08-18 20:00:00
11:00 PM,55.4,35.6,47,30.21,-9999.0,ESE,6.9,-,N/A,,Clear,120,2013-08-18 21:00:00